Location: Hackbridge
(51.3833°N, 0.1500°W)
Time: 02:37:19
(UTC+00:00)

Lacrosse 5 rocket - Pass Details

Date: 13 October 2019
Orbit: 459 x 639 km, 57.0° (Epoch: 14 November)

Event Time Altitude Azimuth Distance (km) Brightness Sun altitude
Rises 18:13:16 0° 300° (WNW) 2,530 5.9 -10.3°
Reaches altitude 10° 18:15:22 10° 299° (WNW) 1,668 4.8 -10.6°
Maximum altitude 18:19:07 77° 213° (SSW) 518 1.2 -11.2°
Enters shadow 18:22:41 12° 128° (SE) 1,609 3.2 -11.7°
